Zurück zum Katalog

MOZ.5/SAFIR/RUBIN 5/SL-8

AktivAmateurfunkSSO
NORAD 28898·PAYLOAD·🇩🇪 Germany

Gestartet Oct 27, 2005 von Plesetsk Cosmodrome

Loading…

Nächste Überflüge (nächste 24 Stunden)

TLE

AktuellSource: Space-Track

Epoche: Sep 14, 2026, 08:14 UTC

1 28898U 05043G   26257.34349355  .00000399  00000-0  84637-4 0  9998
2 28898  98.3673  43.1274 0019464  63.7466 296.5733 14.64477961736303

Verfolge MOZ.5/SAFIR/RUBIN 5/SL-8 in Echtzeit mit AllMySat

Download on the App Store